CW8504 Weather Reports


Display with metric or nautical units.
time (UTC)temp
F
wind
direction
speed
MPH
gust
MPH
rain 1hr
in
rain 24hr
in
rain mn
in
humidity
%
barometer
mb
20260505180404 56 31 3.0 10.0 0.00 0.00 0.00 18 1011.1
20260505175904 56 336 1.0 10.0 0.00 0.00 0.00 15 1011.1
20260505175404 56 351 1.0 6.0 0.00 0.00 0.00 18 1011.3
20260505174904 56 50 2.0 9.0 0.00 0.00 0.00 21 1011.3
20260505174404 56 52 1.0 5.0 0.00 0.00 0.00 20 1011.4
20260505173904 56 349 1.0 5.0 0.00 0.00 0.00 22 1011.5
20260505173403 55 229 0.0 8.0 0.00 0.00 0.00 20 1011.5
20260505172905 55 272 0.0 9.0 0.00 0.00 0.00 20 1011.5
20260505172404 55 44 1.0 9.0 0.00 0.00 0.00 21 1011.6
20260505171904 56 17 2.0 12.0 0.00 0.00 0.00 20 1011.4
20260505171404 56 5 1.0 5.0 0.00 0.00 0.00 21 1011.5
20260505170911 57 30 0.0 3.0 0.00 0.00 0.00 23 1011.5
20260505170404 56 63 2.0 10.0 0.00 0.00 0.00 22 1011.6
20260505165904 57 62 2.0 3.0 0.00 0.00 0.00 24 1011.5
20260505165404 57 304 0.0 2.0 0.00 0.00 0.00 25 1011.6
20260505164910 56 308 0.0 0.0 0.00 0.00 0.00 25 1011.6
20260505163904 55 307 1.0 6.0 0.00 0.00 0.00 25 1011.7
20260505163404 55 232 1.0 5.0 0.00 0.00 0.00 28 1011.7
20260505162404 54 103 0.0 3.0 0.00 0.00 0.00 31 1011.7
20260505161904 54 170 0.0 6.0 0.00 0.00 0.00 30 1011.8
20260505161404 54 121 0.0 3.0 0.00 0.00 0.00 32 1011.8
20260505160904 54 103 0.0 2.0 0.00 0.00 0.00 32 1011.8
20260505160404 54 150 0.0 2.0 0.00 0.00 0.00 32 1011.9
20260505152904 50 223 1.0 6.0 0.00 0.00 0.00 38 1012.2
20260505152404 50 215 0.0 0.0 0.00 0.00 0.00 38 1012.2
20260505151904 49 215 0.0 5.0 0.00 0.00 0.00 40 1012.4
20260505151404 49 218 2.0 6.0 0.00 0.00 0.00 42 1012.4
20260505150904 48 224 2.0 5.0 0.00 0.00 0.00 42 1012.4
20260505124407 43 252 0.0 0.0 0.00 0.00 0.00 53 1012.3
20260505123903 43 252 0.0 0.0 0.00 0.00 0.00 53 1012.2
20260505122904 44 252 0.0 0.0 0.00 0.00 0.00 52 1012.2
20260505121904 44 253 0.0 0.0 0.00 0.00 0.00 51 1012.2
20260505121404 44 252 0.0 0.0 0.00 0.00 0.00 50 1012.3
20260505120903 44 240 0.0 0.0 0.00 0.00 0.00 49 1012.4
20260505120405 44 240 0.0 0.0 0.00 0.00 0.00 49 1012.4
20260505115904 44 161 0.0 0.0 0.00 0.00 0.00 49 1012.4
20260505114904 44 122 0.0 3.0 0.00 0.00 0.00 49 1012.2
20260505114405 45 224 0.0 3.0 0.00 0.00 0.00 48 1012.3
20260505113405 45 248 0.0 0.0 0.00 0.00 0.00 50 1012.4
20260505112904 45 15 0.0 0.0 0.00 0.00 0.00 49 1012.2
20260505112404 45 15 0.0 0.0 0.00 0.00 0.00 49 1012.3
20260505111904 45 15 0.0 3.0 0.00 0.00 0.00 49 1012.3
20260505111404 45 277 0.0 0.0 0.00 0.00 0.00 49 1012.2
20260505110904 45 277 0.0 0.0 0.00 0.00 0.00 49 1012.2
20260505101903 42 5 0.0 0.0 0.00 0.00 0.00 63 1012.2
20260505101405 42 5 0.0 0.0 0.00 0.00 0.00 63 1012.2
20260505100904 42 5 0.0 0.0 0.00 0.00 0.00 64 1012.2
20260505100404 42 5 0.0 0.0 0.00 0.00 0.00 64 1012.2
20260505095904 42 5 0.0 0.0 0.00 0.00 0.00 63 1012.1
20260505095404 42 5 0.0 0.0 0.00 0.00 0.00 63 1012.0
20260505094904 42 5 0.0 0.0 0.00 0.00 0.00 64 1012.1
20260505094404 42 5 0.0 0.0 0.00 0.00 0.00 63 1012.0
20260505093904 42 5 0.0 0.0 0.00 0.00 0.00 64 1012.1
20260505093404 42 5 0.0 0.0 0.00 0.00 0.00 64 1012.0
20260505092904 42 5 0.0 0.0 0.00 0.00 0.00 64 1012.0
20260505092404 42 5 0.0 0.0 0.00 0.00 0.00 64 1011.9
20260505091904 42 5 0.0 0.0 0.00 0.00 0.00 64 1011.9
20260505091404 42 5 0.0 0.0 0.00 0.00 0.00 64 1012.0
20260505090904 41 5 0.0 0.0 0.00 0.00 0.00 64 1012.0
20260505090404 41 5 0.0 0.0 0.00 0.00 0.00 63 1011.9
20260505085904 41 5 0.0 0.0 0.00 0.00 0.00 63 1011.8
20260505085404 41 5 0.0 0.0 0.00 0.00 0.00 63 1011.8
20260505084903 41 5 0.0 0.0 0.00 0.00 0.00 63 1011.9
20260505084404 41 5 0.0 0.0 0.00 0.00 0.00 63 1011.9
20260505083904 41 5 0.0 0.0 0.00 0.00 0.00 64 1011.9
20260505082904 41 5 0.0 0.0 0.00 0.00 0.00 64 1011.9
20260505082404 41 5 0.0 0.0 0.00 0.00 0.00 64 1012.0
20260505081904 41 5 0.0 0.0 0.00 0.00 0.00 63 1012.2
20260505081404 42 5 0.0 0.0 0.00 0.00 0.00 63 1012.1
20260505080904 42 5 0.0 0.0 0.00 0.00 0.00 63 1012.1
20260505080404 42 5 0.0 0.0 0.00 0.00 0.00 63 1012.0
20260505075904 42 5 0.0 0.0 0.00 0.00 0.00 62 1012.0
20260505075404 42 5 0.0 0.0 0.00 0.00 0.00 62 1012.1
20260505074904 42 5 0.0 0.0 0.00 0.00 0.00 61 1012.1
20260505074404 42 5 0.0 0.0 0.00 0.00 0.00 60 1012.1
20260505073404 43 5 0.0 0.0 0.00 0.00 0.00 61 1012.0
20260505072904 43 5 0.0 0.0 0.00 0.00 0.00 61 1012.0
20260505072404 43 5 0.0 0.0 0.00 0.00 0.00 60 1012.0
20260505071904 43 5 0.0 0.0 0.00 0.00 0.00 59 1012.0
20260505071404 43 5 0.0 0.0 0.00 0.00 0.00 59 1012.1
20260505070404 44 5 0.0 0.0 0.00 0.00 0.00 58 1012.1
20260505065904 44 5 0.0 0.0 0.00 0.00 0.00 58 1012.0
20260505065404 44 5 0.0 0.0 0.00 0.00 0.00 58 1012.0
20260505064904 44 5 0.0 0.0 0.00 0.00 0.00 58 1012.0
20260505064404 44 5 0.0 0.0 0.00 0.00 0.00 58 1012.0
20260505062904 44 5 0.0 0.0 0.00 0.00 0.00 58 1012.0
20260505062404 44 5 0.0 0.0 0.00 0.00 0.00 57 1012.0
20260505061904 44 5 0.0 0.0 0.00 0.00 0.00 57 1012.0
20260505061404 44 5 0.0 0.0 0.00 0.00 0.00 58 1011.9
20260505060404 45 5 0.0 0.0 0.00 0.00 0.00 57 1012.0
20260505055904 44 5 0.0 0.0 0.00 0.00 0.00 56 1012.0
20260505055405 45 5 0.0 0.0 0.00 0.00 0.00 56 1012.0
20260505054904 45 5 0.0 0.0 0.00 0.00 0.00 55 1012.0
20260505054403 45 5 0.0 0.0 0.00 0.00 0.00 54 1011.9
20260505053903 45 5 0.0 0.0 0.00 0.00 0.00 53 1011.8
20260505052404 46 5 0.0 0.0 0.00 0.00 0.00 52 1011.6
20260505051904 46 5 0.0 0.0 0.00 0.00 0.00 52 1011.5
20260505051404 46 5 0.0 0.0 0.00 0.00 0.00 52 1011.5
20260505050904 46 5 0.0 0.0 0.00 0.00 0.00 52 1011.5
20260505050404 47 5 0.0 0.0 0.00 0.00 0.00 51 1011.5
20260505041418 47 5 0.0 0.0 0.00 0.00 0.00 48 1011.2
20260505040904 47 5 0.0 0.0 0.00 0.00 0.00 47 1011.2
20260505040404 48 5 0.0 0.0 0.00 0.00 0.00 47 1011.1
20260505034904 49 5 0.0 0.0 0.00 0.00 0.00 45 1010.9
20260505034403 49 5 0.0 0.0 0.00 0.00 0.00 45 1010.7
20260505033903 49 5 0.0 0.0 0.00 0.00 0.00 42 1010.6
20260505033404 50 5 0.0 0.0 0.00 0.00 0.00 43 1010.6
20260505032904 50 5 0.0 0.0 0.00 0.00 0.00 41 1010.4
20260505032404 51 5 0.0 0.0 0.00 0.00 0.00 41 1010.5
20260505031904 52 5 0.0 0.0 0.00 0.00 0.00 37 1010.4
20260505031404 52 5 0.0 0.0 0.00 0.00 0.00 36 1010.3
20260505030904 53 5 0.0 0.0 0.00 0.00 0.00 36 1010.2
20260505030407 54 5 0.0 0.0 0.00 0.00 0.00 35 1010.1
20260505025904 54 5 0.0 0.0 0.00 0.00 0.00 34 1010.1
20260505025404 55 5 0.0 0.0 0.00 0.00 0.00 33 1010.0
20260505024904 56 5 0.0 0.0 0.00 0.00 0.00 34 1010.0
20260505024404 56 5 0.0 0.0 0.00 0.00 0.00 32 1010.0
20260505023404 57 5 0.0 0.0 0.00 0.00 0.00 32 1010.0
20260505022905 57 5 0.0 0.0 0.00 0.00 0.00 30 1009.8
20260505022404 57 5 0.0 0.0 0.00 0.00 0.00 30 1009.8
20260505021904 58 5 0.0 0.0 0.00 0.00 0.00 29 1009.8
20260505021404 58 5 0.0 0.0 0.00 0.00 0.00 29 1009.8
20260505020904 58 5 0.0 0.0 0.00 0.00 0.00 29 1009.9
20260505020405 58 5 0.0 0.0 0.00 0.00 0.00 29 1009.9
20260505015903 58 5 0.0 0.0 0.00 0.00 0.00 27 1009.9
20260505015404 59 5 0.0 0.0 0.00 0.00 0.00 27 1009.8
20260505014904 59 5 0.0 0.0 0.00 0.00 0.00 27 1009.9
20260505014404 59 5 0.0 0.0 0.00 0.00 0.00 28 1009.8
20260505013904 59 5 0.0 5.0 0.00 0.00 0.00 26 1009.8
20260505013404 59 71 0.0 2.0 0.00 0.00 0.00 26 1009.8
20260505012904 60 222 1.0 3.0 0.00 0.00 0.00 26 1009.9
20260505012405 60 244 0.0 12.0 0.00 0.00 0.00 27 1010.0
20260505011905 60 223 1.0 10.0 0.00 0.00 0.00 25 1010.1
20260505011404 60 320 0.0 5.0 0.00 0.00 0.00 24 1010.0
20260505010404 61 344 4.0 15.0 0.00 0.00 0.00 22 1010.1
20260505005904 62 228 4.0 20.0 0.00 0.00 0.00 19 1010.0
20260505005404 61 227 1.0 10.0 0.00 0.00 0.00 17 1009.7
20260505004904 61 250 4.0 10.0 0.00 0.00 0.00 18 1009.7
20260505004407 61 229 6.0 12.0 0.00 0.00 0.00 19 1009.7
20260505003404 62 267 4.0 13.0 0.00 0.00 0.00 19 1009.7
20260505002903 62 231 10.0 17.0 0.00 0.00 0.00 19 1009.7
20260505002404 62 233 4.0 12.0 0.00 0.00 0.00 19 1009.6
20260505001904 63 233 3.0 9.0 0.00 0.00 0.00 19 1009.6
20260505000904 64 247 9.0 16.0 0.00 0.00 0.00 16 1009.6
20260505000405 65 256 1.0 14.0 0.00 0.00 0.00 14 1009.5
20260504235903 66 236 3.0 10.0 0.00 0.00 0.00 15 1009.4
20260504235404 66 243 0.0 0.0 0.00 0.00 0.00 14 1009.4
20260504233904 66 38 3.0 8.0 0.00 0.00 0.00 13 1009.5
20260504233404 65 46 0.0 2.0 0.00 0.00 0.00 15 1009.4
20260504232907 65 49 0.0 5.0 0.00 0.00 0.00 15 1009.3
20260504231404 66 244 3.0 9.0 0.00 0.00 0.00 13 1009.2
20260504230904 65 223 0.0 0.0 0.00 0.00 0.00 14 1009.3
20260504230404 65 222 0.0 3.0 0.00 0.00 0.00 14 1009.4
20260504225904 64 236 0.0 3.0 0.00 0.00 0.00 16 1009.5
20260504225404 63 28 0.0 0.0 0.00 0.00 0.00 17 1009.6
20260504224404 63 40 1.0 9.0 0.00 0.00 0.00 16 1009.6
20260504223904 64 104 4.0 13.0 0.00 0.00 0.00 16 1009.7
20260504222903 64 41 1.0 6.0 0.00 0.00 0.00 15 1009.6
20260504222404 64 36 1.0 2.0 0.00 0.00 0.00 14 1009.6
20260504221904 64 42 3.0 10.0 0.00 0.00 0.00 14 1009.6
20260504220904 64 3 3.0 13.0 0.00 0.00 0.00 17 1009.9
20260504220404 63 48 2.0 8.0 0.00 0.00 0.00 18 1009.9
20260504215404 62 33 1.0 8.0 0.00 0.00 0.00 18 1010.3
20260504214904 62 34 0.0 10.0 0.00 0.00 0.00 18 1010.3
20260504214404 63 7 2.0 16.0 0.00 0.00 0.00 18 1010.3
20260504213403 63 42 3.0 6.0 0.00 0.00 0.00 16 1010.1
20260504212904 63 31 1.0 5.0 0.00 0.00 0.00 17 1010.2
20260504211904 62 58 0.0 3.0 0.00 0.00 0.00 19 1010.4
20260504211404 62 58 2.0 10.0 0.00 0.00 0.00 18 1010.5
20260504210904 62 44 2.0 7.0 0.00 0.00 0.00 19 1010.6
20260504210406 62 42 2.0 12.0 0.00 0.00 0.00 19 1010.6
20260504205404 62 34 3.0 25.0 0.00 0.00 0.00 19 1010.7
20260504204904 63 45 5.0 14.0 0.00 0.00 0.00 18 1010.6
20260504203403 68 228 3.0 12.0 0.00 0.00 0.00 13 1010.0
20260504202904 67 194 3.0 10.0 0.00 0.00 0.00 15 1009.9
20260504202404 65 220 0.0 5.0 0.00 0.00 0.00 16 1010.0
20260504201404 64 48 0.0 12.0 0.00 0.00 0.00 15 1010.1
20260504195904 65 44 1.0 5.0 0.00 0.00 0.00 14 1010.2
20260504195405 65 40 2.0 15.0 0.00 0.00 0.00 16 1010.3
20260504194904 65 42 1.0 9.0 0.00 0.00 0.00 16 1010.2
20260504194405 65 36 1.0 13.0 0.00 0.00 0.00 15 1010.3
20260504193904 66 44 3.0 12.0 0.00 0.00 0.00 15 1010.3
20260504193404 67 33 1.0 10.0 0.00 0.00 0.00 15 1010.3
20260504192904 67 26 1.0 12.0 0.00 0.00 0.00 14 1010.4
20260504192404 67 216 5.0 13.0 0.00 0.00 0.00 14 1010.5
20260504191904 67 198 4.0 13.0 0.00 0.00 0.00 13 1010.5
20260504191404 67 227 1.0 6.0 0.00 0.00 0.00 15 1010.5
20260504190904 67 210 0.0 0.0 0.00 0.00 0.00 15 1010.6
20260504190404 66 248 0.0 0.0 0.00 0.00 0.00 15 1010.6
20260504185904 66 249 0.0 0.0 0.00 0.00 0.00 15 1010.7
20260504185404 66 249 0.0 0.0 0.00 0.00 0.00 14 1010.8
20260504184904 67 247 0.0 2.0 0.00 0.00 0.00 14 1010.9
20260504184404 67 226 0.0 2.0 0.00 0.00 0.00 13 1010.9
20260504183403 69 201 0.0 3.0 0.00 0.00 0.00 13 1011.0
20260504182904 69 214 5.0 10.0 0.00 0.00 0.00 12 1011.0
20260504181904 68 155 1.0 5.0 0.00 0.00 0.00 15 1011.0
20260504180904 66 105 0.0 0.0 0.00 0.00 0.00 19 1011.3